FW0298 Weather Reports


Display with metric or nautical units.
time (UTC)temp
F
wind
direction
speed
MPH
gust
MPH
rain 1hr
in
rain 24hr
in
rain mn
in
humidity
%
barometer
mb
20260906073617 69 51 4.0 11.0 0.00 0.16 0.00 86 1015.6
20260906073145 69 47 5.0 9.0 0.00 0.16 0.00 86 1015.6
20260906072610 69 51 6.0 8.0 0.00 0.16 0.00 86 1015.6
20260906072109 69 57 5.0 7.0 0.00 0.16 0.00 86 1015.7
20260906071631 69 51 4.0 9.0 0.00 0.16 0.00 86 1015.6
20260906071115 69 55 5.0 9.0 0.00 0.16 0.00 86 1015.5
20260906070615 69 63 5.0 9.0 0.00 0.16 0.00 87 1015.6
20260906070115 69 29 5.0 9.0 0.00 0.16 0.00 88 1015.6
20260906065622 69 56 4.0 9.0 0.00 0.16 0.00 88 1015.6
20260906065118 69 59 4.0 8.0 0.00 0.16 0.00 88 1015.8
20260906064625 69 66 5.0 8.0 0.00 0.16 0.00 89 1015.7
20260906064126 69 53 5.0 10.0 0.00 0.16 0.00 89 1015.7
20260906063626 69 55 5.0 10.0 0.00 0.16 0.00 89 1015.8
20260906063132 69 72 2.0 7.0 0.00 0.16 0.00 89 1015.8
20260906062612 69 52 4.0 6.0 0.00 0.16 0.00 90 1015.8
20260906062111 69 61 3.0 7.0 0.00 0.16 0.00 90 1015.9
20260906061619 69 20 2.0 6.0 0.00 0.16 0.00 90 1015.8
20260906061117 69 43 2.0 6.0 0.00 0.16 0.00 91 1015.8
20260906060617 69 33 4.0 6.0 0.00 0.16 0.00 91 1015.7
20260906060145 69 52 3.0 5.0 0.00 0.16 0.00 90 1015.7
20260906055624 69 351 2.0 6.0 0.00 0.16 0.00 90 1015.7
20260906055111 69 55 3.0 6.0 0.00 0.16 0.00 90 1015.5
20260906054610 69 320 2.0 5.0 0.00 0.16 0.00 89 1015.6
20260906054109 69 57 3.0 7.0 0.00 0.16 0.00 89 1015.4
20260906053616 69 71 2.0 7.0 0.00 0.16 0.00 89 1015.4
20260906053134 69 58 4.0 9.0 0.00 0.16 0.00 89 1015.3
20260906052620 69 48 4.0 6.0 0.00 0.16 0.00 90 1015.3
20260906052119 69 69 4.0 7.0 0.00 0.16 0.00 90 1015.3
20260906051620 69 64 5.0 7.0 0.00 0.16 0.00 91 1015.3
20260906051127 69 63 3.0 6.0 0.00 0.16 0.00 91 1015.3
20260906050626 69 67 3.0 5.0 0.00 0.16 0.00 91 1015.3
20260906050132 69 75 1.0 7.0 0.00 0.16 0.00 91 1015.3
20260906045633 69 67 4.0 7.0 0.00 0.16 0.00 91 1015.3
20260906045120 69 76 3.0 7.0 0.00 0.16 0.00 91 1015.3
20260906044619 69 62 4.0 7.0 0.00 0.16 0.00 91 1015.3
20260906044119 69 60 4.0 7.0 0.00 0.16 0.00 91 1015.1
20260906043626 70 63 4.0 7.0 0.00 0.16 0.00 91 1015.1
20260906043126 70 62 2.0 7.0 0.00 0.16 0.00 91 1015.1
20260906042626 70 68 3.0 8.0 0.00 0.16 0.00 91 1015.1
20260906042113 70 43 5.0 8.0 0.00 0.16 0.00 91 1015.1
20260906041612 70 71 3.0 9.0 0.00 0.16 0.00 91 1015.0
20260906041112 70 67 5.0 9.0 0.00 0.16 0.00 91 1015.0
20260906040618 70 63 3.0 8.0 0.00 0.16 0.00 90 1015.1
20260906040201 70 57 4.0 8.0 0.00 0.16 0.00 90 1015.1
20260906035619 71 60 5.0 8.0 0.00 0.16 0.16 90 1015.2
20260906035148 71 62 5.0 7.0 0.00 0.16 0.16 90 1015.2
20260906034648 71 55 5.0 7.0 0.00 0.16 0.16 90 1015.2
20260906034135 71 59 5.0 8.0 0.00 0.16 0.16 90 1015.3
20260906033613 71 54 5.0 9.0 0.00 0.16 0.16 90 1015.4
20260906033119 71 63 4.0 10.0 0.00 0.16 0.16 90 1015.3
20260906032618 72 56 6.0 12.0 0.00 0.16 0.16 89 1015.2
20260906032146 72 50 7.0 11.0 0.00 0.16 0.16 89 1015.2
20260906031624 72 62 7.0 12.0 0.00 0.16 0.16 90 1015.2
20260906031131 72 50 6.0 12.0 0.00 0.16 0.16 90 1015.1
20260906030610 72 46 6.0 9.0 0.00 0.16 0.16 92 1015.1
20260906030155 72 68 5.0 9.0 0.00 0.16 0.16 92 1014.9
20260906025613 72 61 4.0 8.0 0.00 0.16 0.16 92 1015.0
20260906025112 72 62 3.0 6.0 0.00 0.16 0.16 92 1014.7
20260906024618 72 69 4.0 9.0 0.00 0.16 0.16 92 1014.6
20260906024118 73 58 5.0 11.0 0.00 0.16 0.16 91 1014.8
20260906023618 73 66 5.0 13.0 0.00 0.16 0.16 91 1014.5
20260906023124 73 47 9.0 13.0 0.00 0.16 0.16 91 1014.6
20260906022623 73 60 8.0 12.0 0.00 0.16 0.16 91 1014.5
20260906022151 74 48 8.0 12.0 0.00 0.16 0.16 91 1014.4
20260906021610 74 56 7.0 12.0 0.00 0.16 0.16 91 1014.5
20260906021130 74 82 6.0 11.0 0.00 0.16 0.16 92 1014.4
20260906020616 74 74 6.0 12.0 0.00 0.16 0.16 92 1014.5
20260906020115 74 75 7.0 12.0 0.00 0.16 0.16 92 1014.4
20260906015622 74 57 8.0 10.0 0.00 0.16 0.16 92 1014.4
20260906015121 74 57 5.0 10.0 0.00 0.16 0.16 92 1014.2
20260906014649 74 68 6.0 10.0 0.00 0.16 0.16 92 1014.0
20260906014128 74 55 6.0 15.0 0.00 0.16 0.16 92 1014.0
20260906013634 74 62 9.0 14.0 0.00 0.16 0.16 91 1014.1
20260906013110 75 50 7.0 14.0 0.00 0.16 0.16 91 1013.7
20260906012610 75 57 7.0 13.0 0.00 0.16 0.16 90 1013.7
20260906012110 75 50 9.0 15.0 0.00 0.16 0.16 90 1013.7
20260906011616 75 57 10.0 15.0 0.00 0.16 0.16 90 1013.6
20260906011137 76 50 9.0 15.0 0.00 0.16 0.16 90 1013.7
20260906010622 76 52 8.0 12.0 0.00 0.16 0.16 90 1013.5
20260906010123 76 53 5.0 12.0 0.00 0.16 0.16 90 1013.6
20260906005623 76 64 8.0 12.0 0.00 0.16 0.16 90 1013.6
20260906005109 76 70 9.0 12.0 0.00 0.16 0.16 90 1013.4
20260906004630 76 57 9.0 12.0 0.00 0.16 0.16 90 1013.4
20260906004115 76 52 7.0 12.0 0.00 0.16 0.16 91 1013.4
20260906003615 76 60 7.0 11.0 0.00 0.16 0.16 91 1013.3
20260906003122 76 67 8.0 12.0 0.00 0.16 0.16 90 1013.2
20260906002642 76 61 7.0 13.0 0.00 0.16 0.16 90 1013.2
20260906002127 76 64 6.0 11.0 0.00 0.16 0.16 90 1013.2
20260906001627 76 53 6.0 11.0 0.00 0.16 0.16 90 1013.0
20260906001126 77 57 5.0 11.0 0.00 0.16 0.16 89 1012.9
20260906000633 77 53 6.0 11.0 0.00 0.16 0.16 88 1012.9
20260906000112 77 54 5.0 9.0 0.00 0.16 0.16 87 1012.8
20260905235611 78 61 4.0 11.0 0.00 0.16 0.16 86 1012.8
20260905235138 78 64 4.0 11.0 0.00 0.16 0.16 85 1012.8
20260905234645 79 55 3.0 9.0 0.00 0.16 0.16 84 1012.9
20260905234124 80 22 4.0 10.0 0.00 0.16 0.16 83 1012.9
20260905233625 81 59 4.0 10.0 0.00 0.16 0.16 82 1012.9
20260905233134 82 51 2.0 5.0 0.00 0.16 0.16 82 1012.9
20260905232640 82 334 1.0 3.0 0.00 0.16 0.16 81 1012.7
20260905232136 83 325 0.0 3.0 0.00 0.16 0.16 81 1012.6
20260905231622 83 353 1.0 7.0 0.00 0.16 0.16 80 1012.4
20260905231121 84 321 3.0 7.0 0.00 0.16 0.16 80 1012.3
20260905230620 84 338 0.0 3.0 0.00 0.16 0.16 79 1012.1
20260905230128 84 337 0.0 4.0 0.00 0.16 0.16 79 1012.2
20260905225611 84 68 0.0 4.0 0.00 0.16 0.16 80 1012.1
20260905225110 85 45 1.0 5.0 0.00 0.16 0.16 79 1012.2
20260905224616 85 12 2.0 5.0 0.00 0.16 0.16 78 1012.2
20260905224116 86 346 2.0 4.0 0.00 0.16 0.16 77 1012.2
20260905223615 86 28 2.0 4.0 0.00 0.16 0.16 77 1012.2
20260905223122 86 48 1.0 5.0 0.00 0.16 0.16 77 1012.2
20260905222622 86 340 1.0 5.0 0.00 0.16 0.16 77 1012.2
20260905222130 86 58 1.0 8.0 0.00 0.16 0.16 77 1012.2
20260905221627 86 55 3.0 8.0 0.00 0.16 0.16 76 1012.3
20260905221127 86 322 3.0 7.0 0.00 0.16 0.16 79 1012.3
20260905220634 86 57 4.0 7.0 0.00 0.16 0.16 77 1012.1
20260905220130 86 60 3.0 5.0 0.00 0.16 0.16 78 1012.1
20260905215616 86 331 2.0 7.0 0.00 0.16 0.16 77 1012.1
20260905215116 85 30 3.0 9.0 0.00 0.16 0.16 77 1011.8
20260905214623 86 48 6.0 9.0 0.00 0.16 0.16 76 1011.8
20260905214144 86 30 3.0 6.0 0.00 0.16 0.16 78 1011.9
20260905213631 86 56 3.0 6.0 0.00 0.16 0.16 79 1011.8
20260905213111 86 52 1.0 6.0 0.00 0.16 0.16 78 1011.9
20260905212610 86 339 2.0 6.0 0.00 0.16 0.16 76 1011.9
20260905212139 86 346 3.0 10.0 0.00 0.16 0.16 76 1011.8
20260905211618 86 360 5.0 10.0 0.00 0.16 0.16 76 1011.8
20260905211117 87 55 2.0 8.0 0.00 0.16 0.16 78 1011.7
20260905210624 86 345 2.0 8.0 0.00 0.16 0.16 78 1011.7
20260905210123 86 24 3.0 9.0 0.00 0.16 0.16 76 1011.8
20260905205630 86 339 4.0 9.0 0.00 0.16 0.16 76 1011.7
20260905205109 86 44 4.0 9.0 0.00 0.16 0.16 77 1011.9
20260905204638 86 59 3.0 10.0 0.00 0.16 0.16 78 1011.9
20260905204117 85 352 2.0 7.0 0.00 0.16 0.16 78 1011.9
20260905203616 86 29 3.0 10.0 0.00 0.16 0.16 78 1012.0
20260905203123 86 75 3.0 10.0 0.00 0.16 0.16 77 1012.0
20260905202623 86 36 3.0 7.0 0.00 0.16 0.16 77 1011.9
20260905202123 86 19 3.0 7.0 0.00 0.16 0.16 81 1011.9
20260905201629 85 33 2.0 5.0 0.00 0.16 0.16 78 1012.0
20260905201130 86 5 2.0 6.0 0.00 0.16 0.16 76 1012.3
20260905200637 87 331 3.0 7.0 0.00 0.16 0.16 74 1012.3
20260905200115 88 308 3.0 7.0 0.00 0.16 0.16 74 1012.1
20260905195643 88 358 3.0 5.0 0.00 0.16 0.16 74 1012.2
20260905195121 88 304 3.0 5.0 0.00 0.16 0.16 74 1012.2
20260905194628 87 325 3.0 6.0 0.00 0.16 0.16 75 1012.3
20260905194127 87 308 3.0 6.0 0.00 0.16 0.16 76 1012.5
20260905193634 88 288 2.0 7.0 0.00 0.16 0.16 75 1012.5
20260905193113 88 299 3.0 7.0 0.00 0.16 0.16 74 1012.5
20260905192613 88 321 3.0 5.0 0.00 0.16 0.16 74 1012.4
20260905192141 88 44 3.0 8.0 0.00 0.16 0.16 73 1012.4
20260905191620 88 316 5.0 8.0 0.00 0.16 0.16 74 1012.5
20260905191120 88 295 4.0 8.0 0.00 0.16 0.16 75 1012.8
20260905190626 88 275 4.0 8.0 0.00 0.16 0.16 73 1012.9
20260905190126 88 267 2.0 8.0 0.00 0.16 0.16 77 1012.9
20260905185634 87 277 4.0 10.0 0.00 0.16 0.16 78 1013.0
20260905185113 87 275 7.0 10.0 0.00 0.16 0.16 76 1013.0
20260905184612 86 225 2.0 9.0 0.00 0.16 0.16 76 1012.9
20260905184119 86 242 5.0 11.0 0.00 0.16 0.16 77 1013.1
20260905183619 86 259 6.0 11.0 0.00 0.16 0.16 74 1013.0
20260905183126 86 277 6.0 9.0 0.00 0.16 0.16 76 1013.1
20260905182646 86 264 5.0 9.0 0.00 0.16 0.16 77 1013.2
20260905182133 86 277 5.0 9.0 0.00 0.16 0.16 76 1013.2
20260905181633 86 234 3.0 8.0 0.00 0.16 0.16 75 1013.2
20260905181119 86 249 4.0 8.0 0.00 0.16 0.16 75 1013.2
20260905180618 86 232 2.0 7.0 0.00 0.16 0.16 75 1013.2
20260905180118 85 228 4.0 7.0 0.00 0.16 0.16 75 1013.3
20260905175645 85 216 1.0 8.0 0.00 0.16 0.16 74 1013.4
20260905175131 85 285 5.0 8.0 0.00 0.16 0.16 75 1013.4
20260905174611 84 257 2.0 8.0 0.00 0.16 0.16 78 1013.4
20260905174110 84 278 6.0 8.0 0.00 0.16 0.16 75 1013.5
20260905173609 84 273 4.0 8.0 0.00 0.16 0.16 74 1013.5
20260905173116 85 273 5.0 8.0 0.00 0.16 0.16 75 1013.5
20260905172643 85 250 3.0 7.0 0.00 0.16 0.16 76 1013.5
20260905172121 84 240 4.0 8.0 0.00 0.16 0.16 78 1013.6
20260905171622 84 205 4.0 9.0 0.00 0.16 0.16 78 1013.7
20260905170616 84 164 5.0 10.0 0.00 0.16 0.16 75 1013.8
20260905170137 84 243 4.0 9.0 0.00 0.16 0.16 79 1013.8
20260905165622 84 251 3.0 7.0 0.00 0.16 0.16 78 1013.9
20260905165122 84 149 3.0 8.0 0.00 0.16 0.16 78 1014.0
20260905164630 83 211 3.0 8.0 0.00 0.16 0.16 80 1013.9
20260905164128 83 200 4.0 7.0 0.00 0.16 0.16 79 1014.1
20260905163609 82 213 4.0 8.0 0.00 0.16 0.16 80 1014.1
20260905163137 82 218 4.0 8.0 0.00 0.16 0.16 79 1014.2
20260905162643 82 185 3.0 7.0 0.00 0.16 0.16 82 1014.2
20260905162122 82 212 4.0 8.0 0.00 0.16 0.16 80 1014.2
20260905161621 81 166 4.0 8.0 0.00 0.16 0.16 80 1014.3
20260905161128 81 165 4.0 7.0 0.00 0.16 0.16 81 1014.3
20260905160627 81 242 4.0 7.0 0.00 0.16 0.16 81 1014.3
20260905160127 81 216 3.0 10.0 0.00 0.16 0.16 83 1014.3
20260905155634 80 206 3.0 10.0 0.00 0.16 0.16 83 1014.3
20260905155113 80 199 3.0 7.0 0.08 0.16 0.16 84 1014.3
20260905154621 79 199 4.0 5.0 0.16 0.16 0.16 81 1014.3
20260905154120 79 229 2.0 5.0 0.16 0.16 0.16 84 1014.2
20260905153628 78 209 2.0 7.0 0.16 0.16 0.16 86 1014.2
20260905153128 77 206 3.0 7.0 0.16 0.16 0.16 85 1014.0
20260905152635 76 187 2.0 6.0 0.16 0.16 0.16 89 1014.1
20260905152134 75 188 3.0 6.0 0.16 0.16 0.16 90 1014.2
20260905151613 74 156 3.0 4.0 0.16 0.16 0.16 93 1014.0
20260905151143 74 125 0.0 1.0 0.16 0.16 0.16 91 1014.4
20260905150621 74 164 0.0 5.0 0.16 0.16 0.16 90 1014.5
20260905150128 74 169 2.0 5.0 0.16 0.16 0.16 89 1014.5
20260905145627 74 143 3.0 5.0 0.16 0.16 0.16 88 1014.4
20260905145134 76 65 2.0 3.0 0.06 0.06 0.06 85 1014.9
20260905144613 76 202 1.0 5.0 0.00 0.00 0.00 87 1014.4
20260905144114 75 148 3.0 7.0 0.00 0.00 0.00 86 1014.3
20260905143613 75 190 3.0 10.0 0.00 0.00 0.00 85 1014.2
20260905143120 75 217 5.0 13.0 0.00 0.00 0.00 85 1014.2
20260905142641 76 193 8.0 13.0 0.00 0.00 0.00 83 1014.0
20260905142125 76 218 5.0 11.0 0.00 0.00 0.00 85 1014.0
20260905141625 76 173 7.0 11.0 0.00 0.00 0.00 85 1013.9
20260905141132 76 171 6.0 12.0 0.00 0.00 0.00 84 1013.9
20260905140611 76 153 6.0 12.0 0.00 0.00 0.00 85 1014.0
20260905140111 75 151 6.0 10.0 0.00 0.00 0.00 87 1013.8
20260905135617 75 154 7.0 9.0 0.00 0.00 0.00 86 1013.9
20260905135116 74 166 4.0 11.0 0.00 0.00 0.00 87 1013.8
20260905134620 74 152 6.0 11.0 0.00 0.00 0.00 87 1013.9
20260905134140 74 164 5.0 12.0 0.00 0.00 0.00 89 1013.7
20260905133626 73 195 8.0 12.0 0.00 0.00 0.00 88 1013.7
20260905133125 73 166 7.0 16.0 0.00 0.00 0.00 89 1013.6
20260905132649 73 192 10.0 16.0 0.00 0.00 0.00 87 1013.6
20260905132148 73 148 6.0 13.0 0.00 0.00 0.00 88 1013.6
20260905131633 73 179 8.0 15.0 0.00 0.00 0.00 89 1013.8
20260905131112 73 183 8.0 15.0 0.00 0.00 0.00 89 1013.5
20260905130639 72 199 9.0 13.0 0.00 0.00 0.00 89 1013.7
20260905130118 72 166 6.0 12.0 0.00 0.00 0.00 90 1013.8
20260905125617 72 153 6.0 12.0 0.00 0.00 0.00 91 1013.6
20260905125124 71 178 7.0 11.0 0.00 0.00 0.00 91 1013.8
20260905124623 71 156 6.0 11.0 0.00 0.00 0.00 91 1013.7
20260905124130 71 158 7.0 11.0 0.00 0.00 0.00 91 1013.8
20260905123609 71 197 6.0 9.0 0.00 0.00 0.00 92 1013.8
20260905123109 70 148 5.0 9.0 0.00 0.00 0.00 93 1013.8
20260905122635 70 157 5.0 7.0 0.00 0.00 0.00 93 1014.1
20260905122115 70 141 4.0 9.0 0.00 0.00 0.00 93 1013.9
20260905121614 70 168 4.0 9.0 0.00 0.00 0.00 94 1013.9
20260905121142 70 194 2.0 7.0 0.00 0.00 0.00 94 1013.9
20260905120128 69 127 3.0 6.0 0.00 0.00 0.00 94 1014.1
20260905115628 69 133 2.0 6.0 0.00 0.00 0.00 94 1014.0
20260905115128 69 126 3.0 6.0 0.00 0.00 0.00 94 1014.0
20260905114635 69 143 3.0 7.0 0.00 0.00 0.00 94 1014.0
20260905114115 69 138 3.0 10.0 0.00 0.00 0.00 94 1014.0
20260905113615 69 116 4.0 10.0 0.00 0.00 0.00 94 1013.9
20260905113121 69 127 4.0 8.0 0.00 0.00 0.00 94 1013.9
20260905112621 69 100 5.0 10.0 0.00 0.00 0.00 93 1013.8
20260905112120 69 113 5.0 10.0 0.00 0.00 0.00 93 1013.8
20260905111627 69 130 5.0 10.0 0.00 0.00 0.00 93 1013.7
20260905111126 69 111 5.0 11.0 0.00 0.00 0.00 93 1013.7
20260905110654 69 129 6.0 11.0 0.00 0.00 0.00 93 1013.7
20260905110113 69 91 5.0 10.0 0.00 0.00 0.00 92 1013.7
20260905105613 70 86 5.0 10.0 0.00 0.00 0.00 92 1013.7
20260905105119 70 111 5.0 8.0 0.00 0.00 0.00 92 1013.6
20260905104619 70 132 4.0 12.0 0.00 0.00 0.00 92 1013.7
20260905104119 70 127 8.0 12.0 0.00 0.00 0.00 92 1013.7
20260905103625 70 101 8.0 11.0 0.00 0.00 0.00 92 1013.7
20260905103125 70 125 7.0 12.0 0.00 0.00 0.00 91 1013.6
20260905102624 70 121 7.0 15.0 0.00 0.00 0.00 91 1013.7
20260905102132 70 109 7.0 15.0 0.00 0.00 0.00 91 1013.7
20260905101632 70 84 5.0 11.0 0.00 0.00 0.00 91 1013.8
20260905101139 70 123 6.0 12.0 0.00 0.00 0.00 90 1013.8
20260905100617 70 113 6.0 12.0 0.00 0.00 0.00 90 1013.9
20260905100142 70 90 6.0 14.0 0.00 0.00 0.00 90 1013.8
20260905095620 71 104 9.0 14.0 0.00 0.00 0.00 90 1014.0
20260905095111 71 94 9.0 16.0 0.00 0.00 0.00 89 1013.9
20260905094611 73 83 11.0 17.0 0.00 0.00 0.00 88 1013.9
20260905094110 74 88 12.0 17.0 0.00 0.00 0.00 89 1013.7
20260905093616 76 69 6.0 11.0 0.00 0.00 0.00 94 1013.8
20260905093133 75 48 4.0 10.0 0.00 0.00 0.00 94 1013.7
20260905092619 75 78 5.0 13.0 0.00 0.00 0.00 95 1013.3
20260905092118 74 67 9.0 13.0 0.00 0.00 0.00 97 1013.6
20260905091618 74 52 2.0 5.0 0.00 0.00 0.00 95 1013.2
20260905091110 74 130 0.0 0.0 0.00 0.00 0.00 95 1013.0
20260905090630 74 157 0.0 0.0 0.00 0.00 0.00 95 1012.9
20260905090116 74 159 0.0 1.0 0.00 0.00 0.00 95 1012.9
20260905085613 74 159 0.0 3.0 0.00 0.00 0.00 95 1012.9
20260905085118 74 161 2.0 3.0 0.00 0.00 0.00 96 1012.9
20260905084616 74 164 1.0 3.0 0.00 0.00 0.00 95 1012.9
20260905084116 74 181 0.0 2.0 0.00 0.00 0.00 95 1012.9
20260905083625 74 143 0.0 0.0 0.00 0.00 0.00 94 1012.9
20260905083113 74 132 0.0 0.0 0.00 0.00 0.00 94 1013.0
20260905082616 74 132 0.0 0.0 0.00 0.00 0.00 94 1012.9
20260905081615 75 132 0.0 0.0 0.00 0.00 0.00 93 1012.9
20260905081117 75 132 0.0 0.0 0.00 0.00 0.00 92 1012.9
20260905080619 76 308 0.0 0.0 0.00 0.00 0.00 92 1012.7
20260905080127 76 309 0.0 0.0 0.00 0.00 0.00 91 1012.8
20260905075609 76 309 0.0 0.0 0.00 0.00 0.00 91 1012.8
20260905075113 76 309 0.0 0.0 0.00 0.00 0.00 92 1012.8
20260905074619 76 309 0.0 1.0 0.00 0.00 0.00 92 1012.8
20260905074120 76 309 0.0 3.0 0.00 0.00 0.00 92 1012.8
20260905073627 76 320 1.0 3.0 0.00 0.00 0.00 93 1012.8